SL-16 DEB, 39895

Orbit data source: Space-Track

SL-16 DEB, 39895 is space debris in LEO originally from a launch on Fri, 26 Mar 1993 UTC launched from the Tyuratam Missile And Space Complex (TTMTR). Debris objects in space refer to the collection of defunct objects orbiting the Earth. Examples of debris include non-operational satellites, rocket bodies, and fragments generated from explosions, collisions, or faulty payload assembly.

Loading next visibility...
Identifier
39895, 1993-016BV
Orbit
LEO
Country
Flag of CISCIS
Related business
Manufacturer
Unknown
Mission
Spacecraft
Bus & Motor
Unknown
Mass
Unknown
Launch date (UTC)
1993-03-26 (33 years ago)
Launch vehicle
Unknown
Launch site
Tyuratam Missile And Space Complex (TTMTR)
Object type
Payload
Rocket body
Debris
Shape & HBR
Unknown shape, 0.1 m
Radar Cross Section
Small (<0.1 m²)

Expand to show TLE details & history
Last TLE update: 4 days ago

TLE from 4 days ago
0 SL-16 DEB
1 39895U 93016BV  25292.39995049  .00000723  00000-0  52553-3 0  9996
2 39895  70.9903 328.9801 0124567 309.3140  49.6979 13.96002246300314
Epoch: 2025-10-19T09:35Z
TLE epoch observation values (Epoch: 2025-10-19T09:35:55.722Z)
Latitude
-0.00008°
Longitude
156.88073°
Altitude
852.005 km
Speed
7.456 km/s
True Right ascension
21h 55m 55s
True Declination
0° 00' 00"
Sunlit
Object was in full shadow at epoch
Visualization orbit readout
Latitude
Unknown
Longitude
Unknown
Altitude
Unknown
Speed
Unknown
Apparent Right ascension
Unknown
Apparent Declination
Unknown
Sunlit
N/A
Visualization observer readout
Local Sidereal Time
17:45:39
Azimuth
Unknown
Elevation
Unknown
Doppler factor
Unknown
Orbital elements
Apogee altitude
996.347 km
Perigee altitude
814.884 km
Semi-major axis
7,283.753 km
Eccentricity
0.01246
Inclination
70.9903°
RAAN
328.9801°
Arg. of periapsis
309.314°
True anomaly
50.79753°
Mean anomaly
49.6979°
Eccentric anomaly
50.24661°
Mean motion
3.49149 °/min
Orbital period
103.11 mins
BSTAR
0.00052553
Loading maneuver chart data...
Computing Atmospheric mass density...
Loading historical data...
Loading historical data...
Loading historical data...
Loading historical data...
Loading historical data...
Loading historical data...
Loading historical data...

Documentation

Showing up to 5 results
|